Flag for Brazil Weather past 2 weeks in Florianópolis, Santa Catarina, Brazil

Now
61 °F

Passing clouds.


Feels Like: 61 °F
Forecast: 61 / 72 °F
Wind: 8 mph from Northwest

Location: Florianopolis Aeroporto

Current Time: Jul 31, 2015 at 7:26:12 AM

Latest Report: Jul 31, 2015 at 7:00 AM


Visibility: N/A

Pressure: 30.15 "Hg

Humidity: 88%

Dew point: 57 °F

Location of FlorianópolisLocation

Historic Weather in Florianópolis — Graph

°F

Florianópolis temperature yesterday

Maximum temperature yesterday: 77 °F (at 4:00 PM)
Minimum temperature yesterday: 63 °F (at 12:00 AM)
Average temperature yesterday: 67 °F

Past Weeks' High & Low Weather Summary

 TemperatureHumidityPressure
High77 °F (Jul 29, 2:00 PM)100% (Jul 30, 8:00 AM)30.33 "Hg (Jul 30, 8:00 AM)
Low55 °F (Jul 18, 7:00 AM)46% (Jul 21, 2:00 PM)29.86 "Hg (Jul 20, 7:00 PM)
Average65 °F82%30.12 "Hg
* Reported Jul 16 6:00 AM — Jul 31 6:00 AM, Florianópolis, Weather by CustomWeather, © 2015

Note: Actual official high and low records may vary slightly from our data, if they occured in-between our weather recording intervals... More about our weather records

Advertising

Florianópolis weather history for previous 24 hours

 ConditionsComfort  
Time TempWeatherWind HumidityBarometerVisibility
6:00 AM
Fri, Jul 31
61 °FPassing clouds.6 mph88%30.15 "Hg5 mi
5:00 AM61 °FFog.6 mph94%30.12 "Hg3 mi
4:00 AM63 °FFog.8 mph88%30.12 "Hg3 mi
3:00 AM63 °FFog.8 mph94%30.15 "Hg3 mi
2:00 AM64 °FFog.6 mph88%30.15 "Hg3 mi
1:00 AM64 °FFog.6 mph88%30.15 "Hg3 mi
12:00 AM64 °FFog.5 mph88%30.15 "Hg3 mi
11:00 PM
Thu, Jul 30
64 °FFog.No wind88%30.15 "Hg3 mi
10:00 PM64 °FFog.3 mph94%30.15 "Hg3 mi
9:00 PM64 °FClear.6 mph94%30.15 "HgN/A
8:00 PM66 °FClear.5 mph88%30.12 "Hg10 mi
7:00 PM66 °FClear.2 mph88%30.12 "Hg10 mi
6:00 PM68 °FClear.3 mph88%30.09 "Hg10 mi
5:00 PM73 °FClear.2 mph74%30.09 "Hg10 mi
4:00 PM77 °FSunny.2 mph65%30.09 "Hg10 mi
3:00 PM75 °FSunny.7 mph65%30.09 "Hg10 mi
2:00 PM75 °FSunny.9 mph65%30.12 "Hg10 mi
1:00 PM73 °FSunny.8 mph69%30.15 "Hg10 mi
12:00 PM73 °FSunny.7 mph69%30.18 "Hg10 mi
11:00 AM72 °FSunny.7 mph69%30.18 "Hg10 mi
10:00 AM68 °FSunny.7 mph83%30.18 "Hg10 mi
9:00 AM64 °FFog.8 mph88%30.18 "Hg3 mi
8:00 AM63 °FFog.7 mph100%30.15 "Hg3 mi
7:00 AM63 °FFog.7 mph94%30.15 "Hg3 mi
Weather by CustomWeather, © 2015

See weather overviewHow to use our weather pages